Regional Weather Roundup
Issued by NWS Cleveland, OH

Home | Current Version | Previous Version | Text Only | Print | Product List | Glossary On
Versions: 1 2 3 4 5 6 7 8 9 10 11 12 13 14 15 16 17 18 19 20 21 22 23 24 25 26 27 28 29 30 31 32 33 34 35 36 37 38 39 40 41 42 43 44 45 46 47 48 49 50
000
ASUS41 KCLE 121812
RWRCLE
OHIO REGIONAL WEATHER ROUNDUP
NATIONAL WEATHER SERVICE WILMINGTON, OH
100 PM EST TUE DEC 12 2017

NOTE: "FAIR" INDICATES FEW OR NO CLOUDS BELOW 12,000 FEET WITH NO
SIGNIFICANT WEATHER AND/OR OBSTRUCTIONS TO VISIBILITY.

OHZ001>008-015>018-024>027-034-035-043-044-121900-
   NORTHWEST OHIO

CITY           SKY/WX    TMP DP  RH WIND       PRES   REMARKS
DEFIANCE       NOT AVBL
FINDLAY        PTSUNNY   24   4  42 NW22G30   29.87F WCI   9
TOLEDO EXPRESS FLURRIES  21  10  62 NW15G26   29.88F WCI   8
TOLEDO EXEC    FLURRIES  22   9  57 NW20      29.89S WCI   7
LIMA           PTSUNNY   24   6  46 NW21G29   29.88F WCI   9
$$

OHZ009>014-019>023-028>033-038-089-121900-
   NORTHEAST OHIO

CITY           SKY/WX    TMP DP  RH WIND       PRES   REMARKS
CLE-HOPKINS    LGT SNOW  21  12  68 NW21G28   29.82S BLWGSNOWWCI   5
CLE-LAKEFRONT  PTSUNNY   22   9  57 NW24G39   29.78F WCI   5
CUY CO. ARPT   NOT AVBL
LORAIN-ELYRIA  FLURRIES  20   6  55 NW20G29   29.82S WCI   4
ASHTABULA      LGT SNOW  20  10  65 W16G24    29.73S WCI   6
AKRON-CANTON   PTSUNNY   22   9  57 NW18G26   29.75S WCI   7
WOOSTER        MIX PCPN  20   9  62 NW18G28   29.79S WCI   5
MANSFIELD      FLURRIES  20  10  65 NW14G20   29.80F WCI   7
YOUNGSTOWN     PTSUNNY   24   8  50 NW18G31   29.70S WCI  10
$$

OHZ042-051>053-060>062-070>072-077>081-121900-
  SOUTHWEST OHIO

CITY           SKY/WX    TMP DP  RH WIND       PRES   REMARKS
CINC-COVINGTON PTSUNNY   29  16  58 NW21G29   29.94F WCI  16
CINC-LUNKEN    CLOUDY    29  15  56 NW16G25   29.98S WCI  17
HAMILTON       FLURRIES  27  20  75 NW16G24   29.97S WCI  15
DAYTON         PTSUNNY   24  16  71 NW16G28   29.91F WCI  11
WRIGHT-PAT AFB CLOUDY    25  16  68 NW16      29.91F WCI  12
DAYTON GENERAL LGT SNOW  24  18  77 NW14      29.91F WCI  12
WILMINGTON     CLOUDY    25  17  72 NW13      29.89F WCI  14
$$

OHZ036-037-039>041-045>050-054>059-063>069-073>076-082>088-121900-
  CENTRAL AND SOUTHEAST OHIO

CITY           SKY/WX    TMP DP  RH WIND       PRES   REMARKS
COLUMBUS       PTSUNNY   27  10  49 NW18G31   29.86F WCI  14
OSU AIRPORT    CLOUDY    24   8  50 NW23G32   29.86F WCI   9
BOLTON FIELD   PTSUNNY   25   7  46 NW16G24   29.87F WCI  12
RICKENBACK AFB CLOUDY    27   6  42 NW20G25   29.87S WCI  13
NEWARK         PTSUNNY   25  11  55 NW17G28   29.84S WCI  12
MARION         NOT AVBL
LANCASTER      FAIR      26  10  50 NW21G32   29.86S WCI  12
ZANESVILLE     CLOUDY    26   9  48 NW18G26   29.81R WCI  13
NEW PHILLY     FAIR      25  10  53 W18G29    29.78F WCI  11
$$



USA.gov is the U.S. government's official web portal to all federal, state and local government web resources and services.